Location: Beaver Brook Station
(42.3793°N, 71.2203°W)
Time: 01:26:25
(UTC+00:00)

Cosmos 1726 Rocket - Pass Details

Date: 29 October 2020
Orbit: 604 x 629 km, 82.5° (Epoch: 25 November)

Event Time Altitude Azimuth Distance (km) Brightness Sun altitude
Rises 22:13:00 0° 185° (S) 2,854 7.2 -6.5°
Reaches altitude 10° 22:15:12 10° 185° (S) 1,958 6.4 -6.9°
Maximum altitude 22:19:32 86° 100° (E) 622 3.5 -7.6°
Drops below altitude 10° 22:23:57 10° 9° (N) 1,990 6.0 -8.4°
Sets 22:26:11 0° 9° (N) 2,904 6.8 -8.8°
